Home > Weather > Sherbrooke > Past weeks

Flag for Canada Past Weather in Sherbrooke, Quebec, Canada — Yesterday and Last 2 Weeks

Now
81 °F

Sunny.


Feels Like: 81 °F
Forecast: N/A
Wind: 8 mph from Southwest

Location: Sherbrooke

Current Time: Aug 24, 2016 at 5:41:43 PM

Latest Report: Aug 24, 2016 at 5:00 PM


Visibility: 9 mi

Pressure: 30.10 "Hg

Humidity: 51%

Dew Point: 61 °F

Location of SherbrookeLocation

Past Weather in Sherbrooke — Graph

°F

Sherbrooke Temperature Yesterday

Maximum temperature yesterday: 75 °F (at 2:00 PM)
Minimum temperature yesterday: 43 °F (at 4:00 AM)
Average temperature yesterday: 61 °F

High & Low Weather Summary for the Past Weeks

 TemperatureHumidityPressure
High86 °F (Aug 10, 3:00 PM)100% (Aug 11, 2:00 AM)30.24 "Hg (Aug 11, 2:00 AM)
Low43 °F (Aug 23, 4:00 AM)30% (Aug 9, 4:00 PM)29.72 "Hg (Aug 17, 3:00 AM)
Average67 °F82%29.97 "Hg
* Reported Aug 9 4:00 PM — Aug 24 4:00 PM, Sherbrooke, Weather by CustomWeather, © 2016

Note: Actual official high and low records may vary slightly from our data, if they occured in-between our weather recording intervals... More about our weather records

Advertising

Sherbrooke Weather History for the Previous 24 Hours

Scroll right to see more
 ConditionsComfort  
Time TempWeatherWind HumidityBarometerVisibility
4:00 PM
Wed, Aug 24
81 °FSunny.10 mph54%30.11 "Hg9 mi
3:00 PM81 °FSunny.12 mph54%30.12 "Hg9 mi
2:00 PM81 °FPassing clouds.10 mph48%30.14 "Hg9 mi
1:00 PM79 °FSunny.14 mph54%30.17 "Hg9 mi
12:00 PM77 °FPassing clouds.10 mph61%30.17 "Hg9 mi
11:00 AM75 °FSunny.10 mph65%30.19 "Hg9 mi
10:00 AM72 °FSunny.9 mph69%30.19 "Hg9 mi
9:00 AM70 °FSunny.8 mph73%30.20 "Hg9 mi
8:00 AM64 °FSunny.7 mph83%30.21 "Hg9 mi
7:00 AM61 °FSunny.6 mph88%30.20 "Hg9 mi
6:00 AM59 °FClear.3 mph88%30.20 "Hg9 mi
5:00 AM59 °FClear.No wind88%30.18 "Hg9 mi
4:00 AM63 °FClear.6 mph77%30.17 "Hg9 mi
3:00 AM63 °FClear.5 mph77%30.18 "Hg9 mi
2:00 AM64 °FOvercast.7 mph78%30.19 "Hg9 mi
1:00 AM64 °FOvercast.6 mph78%30.19 "Hg9 mi
12:00 AM61 °FOvercast.3 mph88%30.19 "Hg9 mi
11:00 PM
Tue, Aug 23
63 °FClear.3 mph77%30.18 "Hg9 mi
10:00 PM61 °FClear.2 mph83%30.17 "Hg9 mi
9:00 PM64 °FPassing clouds.5 mph73%30.16 "Hg9 mi
8:00 PM66 °FPartly sunny.5 mph68%30.15 "Hg9 mi
7:00 PM70 °FSunny.7 mph57%30.15 "Hg9 mi
6:00 PM73 °FSunny.14 mph50%30.14 "Hg9 mi
5:00 PM75 °FPassing clouds.14 mph47%30.15 "Hg9 mi
Weather by CustomWeather, © 2016

See weather overviewHow to use our weather pages